Location: Newark
(44.6394°N, 22.2943°E)
Time: 22:01:37
(UTC+00:00)

Envisat - Visible Passes

Search period start: 22 January 2022 00:00
Search period end: 01 February 2022 00:00
Orbit: 764 x 766 km, 98.2° (Epoch: 22 January)

Date Brightness Start Highest point End Pass type
(mag) Time Alt. Az. Time Alt. Az. Time Alt. Az.
22 Jan 6.0 01:54:13 10° ENE 01:54:58 10° E 01:55:43 10° E visible
22 Jan 2.9 03:29:37 10° NNE 03:34:45 84° ESE 03:39:49 10° SSW visible
22 Jan 4.6 05:10:24 10° NNW 05:13:03 14° WNW 05:15:43 10° W visible
23 Jan 4.2 02:53:00 10° NNE 02:57:46 39° E 03:02:29 10° SSE visible
23 Jan 3.8 04:32:19 10° N 04:36:37 28° WNW 04:40:54 10° WSW visible
24 Jan 5.4 02:17:04 10° NE 02:20:35 18° E 02:24:04 10° SE visible
24 Jan 3.0 03:54:58 10° N 03:59:59 58° WNW 04:04:56 10° SSW visible
25 Jan 3.2 03:18:03 10° NNE 03:23:08 67° ESE 03:28:11 10° S visible
25 Jan 4.3 04:58:17 10° NNW 05:01:37 18° WNW 05:04:56 10° WSW visible
26 Jan 4.7 02:41:35 10° NNE 02:46:06 31° E 02:50:34 10° SSE visible
26 Jan 3.5 04:20:32 10° N 04:25:07 35° WNW 04:29:40 10° SW visible
27 Jan 5.7 02:06:06 10° NE 02:08:51 15° E 02:11:37 10° ESE visible
27 Jan 2.8 03:43:19 10° N 03:48:25 73° WNW 03:53:28 10° SSW visible
28 Jan 3.7 03:06:32 10° NNE 03:11:31 53° E 03:16:27 10° S visible
28 Jan 4.1 04:46:21 10° NNW 04:50:09 22° WNW 04:53:57 10° WSW visible
28 Jan 6.2 16:05:08 10° WSW 16:07:19 13° W 16:09:32 10° WNW visible
29 Jan 5.0 02:30:16 10° NE 02:34:25 25° E 02:38:33 10° SSE visible
29 Jan 3.3 04:08:48 10° N 04:13:36 43° WNW 04:18:22 10° SW visible
30 Jan 6.0 01:55:36 10° ENE 01:57:06 11° E 01:58:36 10° ESE visible
30 Jan 2.9 03:31:43 10° NNE 03:36:50 89° ESE 03:41:55 10° SSW visible
30 Jan 4.6 05:12:39 10° NNW 05:15:06 14° WNW 05:17:32 10° W visible
31 Jan 4.1 02:55:03 10° NNE 02:59:52 42° E 03:04:39 10° SSE visible
31 Jan 3.9 04:34:28 10° N 04:38:41 27° WNW 04:42:52 10° WSW visible
